TITAN 3C TRANSTAGE DEB, 1682

Orbit data source: Space-Track

TITAN 3C TRANSTAGE DEB, 1682 is space debris in LEO originally from a launch on Fri, 15 Oct 1965 UTC launched from the Air Force Eastern Test Range (AFETR). Debris objects in space refer to the collection of defunct objects orbiting the Earth. Examples of debris include non-operational satellites, rocket bodies, and fragments generated from explosions, collisions, or faulty payload assembly.

Loading next visibility...
Identifier
1682, 1965-082AV
Orbit
LEO
Country
Flag of USUS
Related business
Manufacturer
Unknown
Mission
Spacecraft
Bus & Motor
Unknown
Mass
Unknown
Launch date (UTC)
1965-10-15 (61 years ago)
Launch vehicle
Unknown
Launch site
Air Force Eastern Test Range (AFETR)
Object type
Payload
Rocket body
Debris
Shape & HBR
Unknown shape, 0.3 m
Radar Cross Section
Medium (>0.1 m² and <1 m²)

Expand to show TLE details & history
Last TLE update: 1 day ago

TLE from 1 day ago
0 TITAN 3C TRANSTAGE DEB
1 01682U 65082AV  26202.24660114  .00001209  00000-0  16989-3 0  9992
2 01682  32.4105 153.2646 0047018  93.4987 267.1046 14.74615065195517
Epoch: 2026-07-21T05:55Z
TLE epoch observation values (Epoch: 2026-07-21T05:55:06.338Z)
Latitude
-0.00001°
Longitude
125.46914°
Altitude
646.866 km
Speed
7.536 km/s
True Right ascension
10h 13m 03s
True Declination
0° 00' 00"
Sunlit
Object was in daylight at epoch
Visualization orbit readout
Latitude
Unknown
Longitude
Unknown
Altitude
Unknown
Speed
Unknown
Apparent Right ascension
Unknown
Apparent Declination
Unknown
Sunlit
N/A
Visualization observer readout
Local Sidereal Time
18:25:25
Azimuth
Unknown
Elevation
Unknown
Doppler factor
Unknown
Orbital elements
Apogee altitude
682.992 km
Perigee altitude
616.903 km
Semi-major axis
7,028.084 km
Eccentricity
0.0047
Inclination
32.4105°
RAAN
153.2646°
Arg. of periapsis
93.4987°
True anomaly
266.56667°
Mean anomaly
267.1046°
Eccentric anomaly
266.83562°
Mean motion
3.68373 °/min
Orbital period
97.73 mins
BSTAR
0.00016989

Documentation

Showing up to 5 results
|